Regional Weather Roundup
Issued by NWS

Home | Current Version | Previous Version | Graphics & Text | Print | Product List | Glossary On
Versions: 1 2 3 4 5 6 7 8 9 10 11 12 13 14 15 16 17 18 19 20 21 22 23 24 25 26 27 28 29 30 31 32 33 34 35 36 37 38 39 40 41 42 43 44 45 46 47 48 49 50
000
ASUS45 KCYS 192010
RWRWY

WYOMING REGIONAL WEATHER ROUNDUP
NATIONAL WEATHER SERVICE CHEYENNE WY
200 PM MDT TUE AUG 19 2014

NOTE:  "FAIR" INDICATES FEW OR NO CLOUDS BELOW 12,000 FEET
WITH NO SIGNIFICANT WEATHER AND/OR OBSTRUCTIONS TO VISIBILITY.

WYZ001-192100-
YELLOWSTONE NATIONAL PARK

CITY           SKY/WX    TMP DP  RH WIND       PRES   REMARKS
LK YELLOWSTONE   N/A     69  36  29 SW9       30.12F
W YELLOWSTONE  NOT AVBL

$$
WYZ002>013-054>058-071-098>099-192100-
NORTHERN WYOMING

CITY           SKY/WX    TMP DP  RH WIND       PRES   REMARKS
JACKSON        CLOUDY    73  45  35 S10       30.02F
CODY           PTSUNNY   79  48  34 CALM      29.87S
GREYBULL       MOSUNNY   91  36  14 E5        29.78F
WORLAND        MOSUNNY   89  34  14 NW5       29.80F
SHERIDAN       MOSUNNY   91  32  12 CALM      29.79F
BUFFALO        MOSUNNY   88  34  14 VRB3      29.87F
GILLETTE       MOSUNNY   91  39  16 VRB6      29.83F
HULETT         FAIR      88  46  23 MISG      29.85
NEWCASTLE        N/A     88  41  19 SW5       29.84

$$
WYZ014>020-022>026-101>103-192100-
CENTRAL WYOMING

CITY           SKY/WX    TMP DP  RH WIND       PRES   REMARKS
BIG PINEY      CLOUDY    70  43  37 S9        30.09F
PINEDALE       CLOUDY    68  36  30 S8        30.11R
DUBOIS         FAIR      70  36  28 N7        30.04S
LANDER         CLOUDY    80  38  22 NW6       29.94S
RIVERTON       CLOUDY    81  35  19 S8        29.93F
CASPER         CLOUDY    83  37  19 S20       29.93F
DOUGLAS        PTSUNNY   87  39  18 VRB3      29.90F

$$
WYZ021-027>030-104>119-192100-
SOUTHERN WYOMING

CITY           SKY/WX    TMP DP  RH WIND       PRES   REMARKS
EVANSTON       LGT RAIN  55  52  89 S5        30.15F
KEMMERER       CLOUDY    61  45  55 S10       30.15S
FORT BRIDGER   CLOUDY    58  53  84 W9        30.16S
ROCK SPRINGS   CLOUDY    58  51  78 NW3       30.12F
DIXON          RAIN      59  54  81 SW5       30.19F
RAWLINS        LGT RAIN  69  40  34 S14G30    30.13R
SARATOGA       FAIR      68  41  37 MISG      30.13S
LARAMIE        MOSUNNY   78  38  23 SW13G20   30.08F
CHEYENNE       MOSUNNY   81  35  19 E6        29.99S
TORRINGTON     PTSUNNY   89  47  23 NW8       29.83F
PINE BLUFFS    FAIR      88  43  20 SE3       29.91F

$$


USA.gov is the U.S. government's official web portal to all federal, state and local government web resources and services.